owner,sensor,date,latitude,longitude,vertical_datum,wind_speed,wind_to_direction,wind_speed_of_gust,qcFlag 
ADCP,ioos:station:wmo:42374:1,2012-01-25T17:00:00Z,28.8660,-88.0560,1.0,16.6,267.0,99.0,'11111222,11111222,11144222' 
ADCP,ioos:station:wmo:42374:1,2012-01-25T17:20:00Z,28.8660,-88.0560,1.0,18.2,270.0,99.0,'11111222,11111222,11144222' 
ADCP,ioos:station:wmo:42374:1,2012-01-25T18:00:00Z,28.8660,-88.0560,1.0,16.6,264.0,99.0,'11111222,11111222,11144222' 
ADCP,ioos:station:wmo:42374:1,2012-01-25T18:20:00Z,28.8660,-88.0560,1.0,19.0,271.0,99.0,'11111222,11111222,11144222' 
ADCP,ioos:station:wmo:42374:1,2012-01-25T19:00:00Z,28.8660,-88.0560,1.0,17.7,269.0,99.0,'11111222,11111222,11144222' 
ADCP,ioos:station:wmo:42374:1,2012-01-25T19:20:00Z,28.8660,-88.0560,1.0,17.5,271.0,99.0,'11111222,11111222,11144222' 
ADCP,ioos:station:wmo:42374:1,2012-01-25T20:00:00Z,28.8660,-88.0560,1.0,16.5,289.0,99.0,'11111222,11111222,11144222' 
ADCP,ioos:station:wmo:42374:1,2012-01-25T20:20:00Z,28.8660,-88.0560,1.0,16.4,292.0,99.0,'11111222,11111222,11144222' 
ADCP,ioos:station:wmo:42374:1,2012-01-25T21:00:00Z,28.8660,-88.0560,1.0,16.6,295.0,99.0,'11111222,11111222,11144222' 
ADCP,ioos:station:wmo:42374:1,2012-01-25T21:20:00Z,28.8660,-88.0560,1.0,15.9,293.0,99.0,'11111222,11111222,11144222' 
ADCP,ioos:station:wmo:42374:1,2012-01-25T22:00:00Z,28.8660,-88.0560,1.0,13.2,282.0,99.0,'11111222,11111222,11144222' 
ADCP,ioos:station:wmo:42374:1,2012-01-25T22:20:00Z,28.8660,-88.0560,1.0,12.6,280.0,99.0,'11111222,11111222,11144222' 
ADCP,ioos:station:wmo:42374:1,2012-01-25T23:00:00Z,28.8660,-88.0560,1.0,14.2,279.0,99.0,'11111222,11111222,11144222' 
ADCP,ioos:station:wmo:42374:1,2012-01-25T23:20:00Z,28.8660,-88.0560,1.0,14.6,278.0,99.0,'11111222,11111222,11144222' 
ADCP,ioos:station:wmo:42374:1,2012-01-26T00:00:00Z,28.8660,-88.0560,1.0,16.2,278.0,99.0,'11111222,11111222,11144222' 
ADCP,ioos:station:wmo:42374:1,2012-01-26T00:20:00Z,28.8660,-88.0560,1.0,15.6,283.0,99.0,'11111222,11111222,11144222' 
ADCP,ioos:station:wmo:42374:1,2012-01-26T01:20:00Z,28.8660,-88.0560,1.0,16.1,282.0,99.0,'11111222,11111222,11144222' 
ADCP,ioos:station:wmo:42374:1,2012-01-26T02:00:00Z,28.8660,-88.0560,1.0,15.8,280.0,99.0,'11111222,11111222,11144222' 
ADCP,ioos:station:wmo:42374:1,2012-01-26T02:20:00Z,28.8660,-88.0560,1.0,14.9,280.0,99.0,'11111222,11111222,11144222' 
ADCP,ioos:station:wmo:42374:1,2012-01-26T03:20:00Z,28.8660,-88.0560,1.0,14.9,281.0,99.0,'11111222,11111222,11144222' 
ADCP,ioos:station:wmo:42374:1,2012-01-26T04:00:00Z,28.8660,-88.0560,1.0,15.6,281.0,99.0,'11111222,11111222,11144222' 
ADCP,ioos:station:wmo:42374:1,2012-01-26T04:20:00Z,28.8660,-88.0560,1.0,14.8,278.0,99.0,'11111222,11111222,11144222' 
ADCP,ioos:station:wmo:42374:1,2012-01-26T05:00:00Z,28.8660,-88.0560,1.0,14.1,283.0,99.0,'11111222,11111222,11144222' 
ADCP,ioos:station:wmo:42374:1,2012-01-26T05:20:00Z,28.8660,-88.0560,1.0,13.8,281.0,99.0,'11111222,11111222,11144222' 
ADCP,ioos:station:wmo:42374:1,2012-01-26T06:00:00Z,28.8660,-88.0560,1.0,14.4,282.0,99.0,'11111222,11111222,11144222' 
ADCP,ioos:station:wmo:42374:1,2012-01-26T06:20:00Z,28.8660,-88.0560,1.0,14.3,284.0,99.0,'11111222,11111222,11144222' 
ADCP,ioos:station:wmo:42374:1,2012-01-26T07:00:00Z,28.8660,-88.0560,1.0,13.3,285.0,99.0,'11111222,11111222,11144222' 
ADCP,ioos:station:wmo:42374:1,2012-01-26T07:20:00Z,28.8660,-88.0560,1.0,12.6,287.0,99.0,'11111222,11111222,11144222' 
ADCP,ioos:station:wmo:42374:1,2012-01-26T08:00:00Z,28.8660,-88.0560,1.0,12.9,284.0,99.0,'11111222,11111222,11144222' 
ADCP,ioos:station:wmo:42374:1,2012-01-26T08:20:00Z,28.8660,-88.0560,1.0,12.3,285.0,99.0,'11111222,11111222,11144222' 
ADCP,ioos:station:wmo:42374:1,2012-01-26T09:00:00Z,28.8660,-88.0560,1.0,11.4,281.0,99.0,'11111222,11111222,11144222' 
ADCP,ioos:station:wmo:42374:1,2012-01-26T09:20:00Z,28.8660,-88.0560,1.0,11.6,281.0,99.0,'11111222,11111222,11144222' 
ADCP,ioos:station:wmo:42374:1,2012-01-26T10:00:00Z,28.8660,-88.0560,1.0,11.4,276.0,99.0,'11111222,11111222,11144222' 
ADCP,ioos:station:wmo:42374:1,2012-01-26T10:20:00Z,28.8660,-88.0560,1.0,11.5,274.0,99.0,'11111222,11111222,11144222' 
ADCP,ioos:station:wmo:42374:1,2012-01-26T11:00:00Z,28.8660,-88.0560,1.0,9.9,265.0,99.0,'11111222,11111222,11144222' 
ADCP,ioos:station:wmo:42374:1,2012-01-26T12:00:00Z,28.8660,-88.0560,1.0,9.2,262.0,99.0,'11111222,11111222,11144222' 
ADCP,ioos:station:wmo:42374:1,2012-01-26T14:00:00Z,28.8660,-88.0560,1.0,7.1,258.0,99.0,'11111222,11111222,11144222' 
ADCP,ioos:station:wmo:42374:1,2012-01-26T14:20:00Z,28.8660,-88.0560,1.0,8.2,255.0,99.0,'11111222,11111222,11144222' 
ADCP,ioos:station:wmo:42374:1,2012-01-26T15:00:00Z,28.8660,-88.0560,1.0,8.9,262.0,99.0,'11111222,11111222,11144222' 
ADCP,ioos:station:wmo:42374:1,2012-01-26T15:20:00Z,28.8660,-88.0560,1.0,8.4,264.0,99.0,'11111222,11111222,11144222' 
ADCP,ioos:station:wmo:42374:1,2012-01-26T16:00:00Z,28.8660,-88.0560,1.0,10.7,273.0,99.0,'11111222,11111222,11144222' 
ADCP,ioos:station:wmo:42374:1,2012-01-26T16:20:00Z,28.8660,-88.0560,1.0,10.3,278.0,99.0,'11111222,11111222,11144222' 
ADCP,ioos:station:wmo:42374:1,2012-01-26T17:00:00Z,28.8660,-88.0560,1.0,10.7,281.0,99.0,'11111222,11111222,11144222' 
ADCP,ioos:station:wmo:42374:1,2012-01-26T17:20:00Z,28.8660,-88.0560,1.0,9.8,284.0,99.0,'11111222,11111222,11144222' 
ADCP,ioos:station:wmo:42374:1,2012-01-26T19:00:00Z,28.8660,-88.0560,1.0,9.4,-9999.0,99.0,'11111222,99999999,11144222' 
ADCP,ioos:station:wmo:42374:1,2012-01-26T19:20:00Z,28.8660,-88.0560,1.0,9.9,-9999.0,99.0,'11111222,99999999,11144222' 
ADCP,ioos:station:wmo:42374:1,2012-01-26T20:00:00Z,28.8660,-88.0560,1.0,11.0,-9999.0,99.0,'11111222,99999999,11144222' 
ADCP,ioos:station:wmo:42374:1,2012-01-26T20:20:00Z,28.8660,-88.0560,1.0,10.9,-9999.0,99.0,'11111222,99999999,11144222' 
ADCP,ioos:station:wmo:42374:1,2012-01-26T21:00:00Z,28.8660,-88.0560,1.0,10.4,-9999.0,99.0,'11111222,99999999,11144222' 
ADCP,ioos:station:wmo:42374:1,2012-01-26T21:20:00Z,28.8660,-88.0560,1.0,10.7,-9999.0,99.0,'11111222,99999999,11144222' 
ADCP,ioos:station:wmo:42374:1,2012-01-26T22:00:00Z,28.8660,-88.0560,1.0,13.0,-9999.0,99.0,'11111222,99999999,11144222' 
ADCP,ioos:station:wmo:42374:1,2012-01-26T22:20:00Z,28.8660,-88.0560,1.0,12.9,-9999.0,99.0,'11111222,99999999,11144222' 
ADCP,ioos:station:wmo:42374:1,2012-01-26T23:20:00Z,28.8660,-88.0560,1.0,14.0,-9999.0,99.0,'11111222,99999999,11144222' 
ADCP,ioos:station:wmo:42374:1,2012-01-27T00:00:00Z,28.8660,-88.0560,1.0,13.8,-9999.0,99.0,'11111222,99999999,11144222' 
ADCP,ioos:station:wmo:42374:1,2012-01-27T00:20:00Z,28.8660,-88.0560,1.0,13.5,-9999.0,99.0,'11111222,99999999,11144222' 
ADCP,ioos:station:wmo:42374:1,2012-01-27T01:00:00Z,28.8660,-88.0560,1.0,13.7,-9999.0,99.0,'11111222,99999999,11144222' 
ADCP,ioos:station:wmo:42374:1,2012-01-27T01:20:00Z,28.8660,-88.0560,1.0,13.3,-9999.0,99.0,'11111222,99999999,11144222' 
ADCP,ioos:station:wmo:42374:1,2012-01-27T02:00:00Z,28.8660,-88.0560,1.0,15.2,-9999.0,99.0,'11111222,99999999,11144222' 
ADCP,ioos:station:wmo:42374:1,2012-01-27T02:20:00Z,28.8660,-88.0560,1.0,12.3,-9999.0,99.0,'11111222,99999999,11144222' 
ADCP,ioos:station:wmo:42374:1,2012-01-27T03:20:00Z,28.8660,-88.0560,1.0,12.9,-9999.0,99.0,'11111222,99999999,11144222' 
ADCP,ioos:station:wmo:42374:1,2012-01-27T04:00:00Z,28.8660,-88.0560,1.0,14.1,-9999.0,99.0,'11111222,99999999,11144222' 
ADCP,ioos:station:wmo:42374:1,2012-01-27T04:20:00Z,28.8660,-88.0560,1.0,14.2,-9999.0,99.0,'11111222,99999999,11144222' 
ADCP,ioos:station:wmo:42374:1,2012-01-27T05:00:00Z,28.8660,-88.0560,1.0,14.2,-9999.0,99.0,'11111222,99999999,11144222' 
ADCP,ioos:station:wmo:42374:1,2012-01-27T05:20:00Z,28.8660,-88.0560,1.0,13.1,-9999.0,99.0,'11111222,99999999,11144222' 
ADCP,ioos:station:wmo:42374:1,2012-01-27T06:00:00Z,28.8660,-88.0560,1.0,14.2,-9999.0,99.0,'11111222,99999999,11144222' 
ADCP,ioos:station:wmo:42374:1,2012-01-27T06:20:00Z,28.8660,-88.0560,1.0,13.9,-9999.0,99.0,'11111222,99999999,11144222' 
ADCP,ioos:station:wmo:42374:1,2012-01-27T07:00:00Z,28.8660,-88.0560,1.0,13.4,-9999.0,99.0,'11111222,99999999,11144222' 
ADCP,ioos:station:wmo:42374:1,2012-01-27T07:20:00Z,28.8660,-88.0560,1.0,13.1,-9999.0,99.0,'11111222,99999999,11144222' 
ADCP,ioos:station:wmo:42374:1,2012-01-27T08:00:00Z,28.8660,-88.0560,1.0,12.9,-9999.0,99.0,'11111222,99999999,11144222' 
ADCP,ioos:station:wmo:42374:1,2012-01-27T08:20:00Z,28.8660,-88.0560,1.0,13.1,-9999.0,99.0,'11111222,99999999,11144222' 
ADCP,ioos:station:wmo:42374:1,2012-01-27T09:00:00Z,28.8660,-88.0560,1.0,12.7,-9999.0,99.0,'11111222,99999999,11144222' 
ADCP,ioos:station:wmo:42374:1,2012-01-27T09:20:00Z,28.8660,-88.0560,1.0,13.6,-9999.0,99.0,'11111222,99999999,11144222' 
ADCP,ioos:station:wmo:42374:1,2012-01-27T11:00:00Z,28.8660,-88.0560,1.0,13.1,-9999.0,99.0,'11111222,99999999,11144222' 
ADCP,ioos:station:wmo:42374:1,2012-01-27T11:20:00Z,28.8660,-88.0560,1.0,12.4,-9999.0,99.0,'11111222,99999999,11144222' 
ADCP,ioos:station:wmo:42374:1,2012-01-27T12:00:00Z,28.8660,-88.0560,1.0,12.1,-9999.0,99.0,'11111222,99999999,11144222' 
ADCP,ioos:station:wmo:42374:1,2012-01-27T12:20:00Z,28.8660,-88.0560,1.0,12.9,-9999.0,99.0,'11111222,99999999,11144222' 
ADCP,ioos:station:wmo:42374:1,2012-01-27T13:00:00Z,28.8660,-88.0560,1.0,13.0,-9999.0,99.0,'11111222,99999999,11144222' 
ADCP,ioos:station:wmo:42374:1,2012-01-27T13:20:00Z,28.8660,-88.0560,1.0,12.7,-9999.0,99.0,'11111222,99999999,11144222' 
ADCP,ioos:station:wmo:42374:1,2012-01-27T14:00:00Z,28.8660,-88.0560,1.0,11.9,-9999.0,99.0,'11111222,99999999,11144222' 
ADCP,ioos:station:wmo:42374:1,2012-01-27T14:20:00Z,28.8660,-88.0560,1.0,12.5,-9999.0,99.0,'11111222,99999999,11144222' 
ADCP,ioos:station:wmo:42374:1,2012-01-27T15:00:00Z,28.8660,-88.0560,1.0,12.6,-9999.0,99.0,'11111222,99999999,11144222' 
ADCP,ioos:station:wmo:42374:1,2012-01-27T15:20:00Z,28.8660,-88.0560,1.0,12.6,-9999.0,99.0,'11111222,99999999,11144222' 
ADCP,ioos:station:wmo:42374:1,2012-01-27T16:00:00Z,28.8660,-88.0560,1.0,13.0,-9999.0,99.0,'11111222,99999999,11144222' 
ADCP,ioos:station:wmo:42374:1,2012-01-27T16:20:00Z,28.8660,-88.0560,1.0,13.2,-9999.0,99.0,'11111222,99999999,11144222' 
ADCP,ioos:station:wmo:42374:1,2012-01-27T17:00:00Z,28.8660,-88.0560,1.0,13.1,-9999.0,99.0,'11111222,99999999,11144222' 
ADCP,ioos:station:wmo:42374:1,2012-01-27T17:20:00Z,28.8660,-88.0560,1.0,12.1,-9999.0,99.0,'11111222,99999999,11144222' 
ADCP,ioos:station:wmo:42374:1,2012-01-27T18:00:00Z,28.8660,-88.0560,1.0,11.4,-9999.0,99.0,'11111222,99999999,11144222' 
ADCP,ioos:station:wmo:42374:1,2012-01-27T18:20:00Z,28.8660,-88.0560,1.0,11.1,-9999.0,99.0,'11111222,99999999,11144222' 
ADCP,ioos:station:wmo:42374:1,2012-01-27T19:00:00Z,28.8660,-88.0560,1.0,10.3,-9999.0,99.0,'11111222,99999999,11144222' 
ADCP,ioos:station:wmo:42374:1,2012-01-27T19:20:00Z,28.8660,-88.0560,1.0,9.5,-9999.0,99.0,'11111222,99999999,11144222' 
ADCP,ioos:station:wmo:42374:1,2012-01-27T20:00:00Z,28.8660,-88.0560,1.0,9.5,-9999.0,99.0,'11111222,99999999,11144222' 
ADCP,ioos:station:wmo:42374:1,2012-01-27T20:20:00Z,28.8660,-88.0560,1.0,9.0,-9999.0,99.0,'11111222,99999999,11144222' 
ADCP,ioos:station:wmo:42374:1,2012-01-27T21:00:00Z,28.8660,-88.0560,1.0,7.6,-9999.0,99.0,'11111222,99999999,11144222' 
ADCP,ioos:station:wmo:42374:1,2012-01-27T21:20:00Z,28.8660,-88.0560,1.0,8.3,-9999.0,99.0,'11111222,99999999,11144222' 
ADCP,ioos:station:wmo:42374:1,2012-01-27T22:00:00Z,28.8660,-88.0560,1.0,8.1,-9999.0,99.0,'11111222,99999999,11144222' 
ADCP,ioos:station:wmo:42374:1,2012-01-27T22:20:00Z,28.8660,-88.0560,1.0,7.4,-9999.0,99.0,'11111222,99999999,11144222' 
ADCP,ioos:station:wmo:42374:1,2012-01-28T00:00:00Z,28.8660,-88.0560,1.0,7.0,-9999.0,99.0,'11111222,99999999,11144222' 
ADCP,ioos:station:wmo:42374:1,2012-01-28T00:20:00Z,28.8660,-88.0560,1.0,6.2,-9999.0,99.0,'11111222,99999999,11144222' 
ADCP,ioos:station:wmo:42374:1,2012-01-28T01:20:00Z,28.8660,-88.0560,1.0,4.6,-9999.0,99.0,'11111222,99999999,11144222' 
ADCP,ioos:station:wmo:42374:1,2012-01-28T02:00:00Z,28.8660,-88.0560,1.0,3.3,-9999.0,99.0,'11111222,99999999,11144222' 
ADCP,ioos:station:wmo:42374:1,2012-01-28T02:20:00Z,28.8660,-88.0560,1.0,3.4,-9999.0,99.0,'11111222,99999999,11144222' 
ADCP,ioos:station:wmo:42374:1,2012-01-28T03:20:00Z,28.8660,-88.0560,1.0,3.4,-9999.0,99.0,'11111222,99999999,11144222' 
ADCP,ioos:station:wmo:42374:1,2012-01-28T04:00:00Z,28.8660,-88.0560,1.0,4.3,-9999.0,99.0,'11111222,99999999,11144222' 
ADCP,ioos:station:wmo:42374:1,2012-01-28T04:20:00Z,28.8660,-88.0560,1.0,4.1,-9999.0,99.0,'11111222,99999999,11144222' 
ADCP,ioos:station:wmo:42374:1,2012-01-28T05:00:00Z,28.8660,-88.0560,1.0,4.3,-9999.0,99.0,'11111222,99999999,11144222' 
ADCP,ioos:station:wmo:42374:1,2012-01-28T05:20:00Z,28.8660,-88.0560,1.0,4.8,-9999.0,99.0,'11111222,99999999,11144222' 
ADCP,ioos:station:wmo:42374:1,2012-01-28T06:00:00Z,28.8660,-88.0560,1.0,4.0,-9999.0,99.0,'11111222,99999999,11144222' 
ADCP,ioos:station:wmo:42374:1,2012-01-28T06:20:00Z,28.8660,-88.0560,1.0,2.9,-9999.0,99.0,'11111222,99999999,11144222' 
ADCP,ioos:station:wmo:42374:1,2012-01-28T07:00:00Z,28.8660,-88.0560,1.0,4.9,-9999.0,99.0,'11111222,99999999,11144222' 
ADCP,ioos:station:wmo:42374:1,2012-01-28T07:20:00Z,28.8660,-88.0560,1.0,5.6,-9999.0,99.0,'11111222,99999999,11144222' 
ADCP,ioos:station:wmo:42374:1,2012-01-28T08:00:00Z,28.8660,-88.0560,1.0,5.5,-9999.0,99.0,'11111222,99999999,11144222' 
ADCP,ioos:station:wmo:42374:1,2012-01-28T08:20:00Z,28.8660,-88.0560,1.0,6.1,-9999.0,99.0,'11111222,99999999,11144222' 
ADCP,ioos:station:wmo:42374:1,2012-01-28T09:00:00Z,28.8660,-88.0560,1.0,6.2,-9999.0,99.0,'11111222,99999999,11144222' 
ADCP,ioos:station:wmo:42374:1,2012-01-28T09:20:00Z,28.8660,-88.0560,1.0,6.4,-9999.0,99.0,'11111222,99999999,11144222' 
ADCP,ioos:station:wmo:42374:1,2012-01-28T10:00:00Z,28.8660,-88.0560,1.0,6.6,-9999.0,99.0,'11111222,99999999,11144222' 
ADCP,ioos:station:wmo:42374:1,2012-01-28T10:20:00Z,28.8660,-88.0560,1.0,7.5,-9999.0,99.0,'11111222,99999999,11144222' 
ADCP,ioos:station:wmo:42374:1,2012-01-28T11:00:00Z,28.8660,-88.0560,1.0,7.6,-9999.0,99.0,'11111222,99999999,11144222' 
ADCP,ioos:station:wmo:42374:1,2012-01-28T11:20:00Z,28.8660,-88.0560,1.0,7.9,-9999.0,99.0,'11111222,99999999,11144222' 
ADCP,ioos:station:wmo:42374:1,2012-01-28T12:00:00Z,28.8660,-88.0560,1.0,8.1,-9999.0,99.0,'11111222,99999999,11144222' 
ADCP,ioos:station:wmo:42374:1,2012-01-28T12:20:00Z,28.8660,-88.0560,1.0,8.0,-9999.0,99.0,'11111222,99999999,11144222' 
ADCP,ioos:station:wmo:42374:1,2012-01-28T13:20:00Z,28.8660,-88.0560,1.0,6.3,-9999.0,99.0,'11111222,99999999,11144222' 
ADCP,ioos:station:wmo:42374:1,2012-01-28T14:00:00Z,28.8660,-88.0560,1.0,6.0,-9999.0,99.0,'11111222,99999999,11144222' 
ADCP,ioos:station:wmo:42374:1,2012-01-28T14:20:00Z,28.8660,-88.0560,1.0,5.5,-9999.0,99.0,'11111222,99999999,11144222' 
ADCP,ioos:station:wmo:42374:1,2012-01-28T15:00:00Z,28.8660,-88.0560,1.0,5.2,-9999.0,99.0,'11111222,99999999,11144222' 
ADCP,ioos:station:wmo:42374:1,2012-01-28T15:20:00Z,28.8660,-88.0560,1.0,5.1,-9999.0,99.0,'11111222,99999999,11144222' 
ADCP,ioos:station:wmo:42374:1,2012-01-28T16:00:00Z,28.8660,-88.0560,1.0,5.2,-9999.0,99.0,'11111222,99999999,11144222' 
ADCP,ioos:station:wmo:42374:1,2012-01-28T16:20:00Z,28.8660,-88.0560,1.0,5.3,-9999.0,99.0,'11111222,99999999,11144222' 
ADCP,ioos:station:wmo:42374:1,2012-01-28T17:00:00Z,28.8660,-88.0560,1.0,5.8,-9999.0,99.0,'11111222,99999999,11144222' 
ADCP,ioos:station:wmo:42374:1,2012-01-28T17:20:00Z,28.8660,-88.0560,1.0,5.8,-9999.0,99.0,'11111222,99999999,11144222' 
ADCP,ioos:station:wmo:42374:1,2012-01-28T18:00:00Z,28.8660,-88.0560,1.0,5.5,-9999.0,99.0,'11111222,99999999,11144222' 
ADCP,ioos:station:wmo:42374:1,2012-01-28T18:20:00Z,28.8660,-88.0560,1.0,5.6,-9999.0,99.0,'11111222,99999999,11144222' 
ADCP,ioos:station:wmo:42374:1,2012-01-28T19:00:00Z,28.8660,-88.0560,1.0,6.2,-9999.0,99.0,'11111222,99999999,11144222' 
ADCP,ioos:station:wmo:42374:1,2012-01-28T19:20:00Z,28.8660,-88.0560,1.0,5.3,-9999.0,99.0,'11111222,99999999,11144222' 
ADCP,ioos:station:wmo:42374:1,2012-01-28T20:00:00Z,28.8660,-88.0560,1.0,4.8,-9999.0,99.0,'11111222,99999999,11144222' 
ADCP,ioos:station:wmo:42374:1,2012-01-28T20:20:00Z,28.8660,-88.0560,1.0,5.0,-9999.0,99.0,'11111222,99999999,11144222' 
ADCP,ioos:station:wmo:42374:1,2012-01-28T21:00:00Z,28.8660,-88.0560,1.0,4.7,-9999.0,99.0,'11111222,99999999,11144222' 
ADCP,ioos:station:wmo:42374:1,2012-01-28T21:20:00Z,28.8660,-88.0560,1.0,4.7,-9999.0,99.0,'11111222,99999999,11144222' 
ADCP,ioos:station:wmo:42374:1,2012-01-28T22:00:00Z,28.8660,-88.0560,1.0,3.9,-9999.0,99.0,'11111222,99999999,11144222' 
ADCP,ioos:station:wmo:42374:1,2012-01-28T22:20:00Z,28.8660,-88.0560,1.0,2.1,-9999.0,99.0,'11111222,99999999,11144222' 
ADCP,ioos:station:wmo:42374:1,2012-01-28T23:00:00Z,28.8660,-88.0560,1.0,2.1,-9999.0,99.0,'11111222,99999999,11144222' 
ADCP,ioos:station:wmo:42374:1,2012-01-28T23:20:00Z,28.8660,-88.0560,1.0,1.1,-9999.0,99.0,'11111222,99999999,11144222' 
ADCP,ioos:station:wmo:42374:1,2012-01-29T00:00:00Z,28.8660,-88.0560,1.0,1.3,-9999.0,99.0,'11111222,99999999,11144222' 
ADCP,ioos:station:wmo:42374:1,2012-01-29T00:20:00Z,28.8660,-88.0560,1.0,1.1,-9999.0,99.0,'11111222,99999999,11144222' 
ADCP,ioos:station:wmo:42374:1,2012-01-29T01:00:00Z,28.8660,-88.0560,1.0,0.8,-9999.0,99.0,'11111222,99999999,11144222' 
ADCP,ioos:station:wmo:42374:1,2012-01-29T01:20:00Z,28.8660,-88.0560,1.0,1.5,-9999.0,99.0,'11111222,99999999,11144222' 
ADCP,ioos:station:wmo:42374:1,2012-01-29T02:00:00Z,28.8660,-88.0560,1.0,2.2,-9999.0,99.0,'11111222,99999999,11144222' 
ADCP,ioos:station:wmo:42374:1,2012-01-29T03:20:00Z,28.8660,-88.0560,1.0,3.5,-9999.0,99.0,'11111222,99999999,11144222' 
ADCP,ioos:station:wmo:42374:1,2012-01-29T04:00:00Z,28.8660,-88.0560,1.0,3.2,-9999.0,99.0,'11111222,99999999,11144222' 
ADCP,ioos:station:wmo:42374:1,2012-01-29T04:20:00Z,28.8660,-88.0560,1.0,3.5,-9999.0,99.0,'11111222,99999999,11144222' 
ADCP,ioos:station:wmo:42374:1,2012-01-29T05:00:00Z,28.8660,-88.0560,1.0,4.2,-9999.0,99.0,'11111222,99999999,11144222' 
ADCP,ioos:station:wmo:42374:1,2012-01-29T05:20:00Z,28.8660,-88.0560,1.0,4.1,-9999.0,99.0,'11111222,99999999,11144222' 
ADCP,ioos:station:wmo:42374:1,2012-01-29T06:00:00Z,28.8660,-88.0560,1.0,3.8,-9999.0,99.0,'11111222,99999999,11144222' 
ADCP,ioos:station:wmo:42374:1,2012-01-29T06:20:00Z,28.8660,-88.0560,1.0,4.5,-9999.0,99.0,'11111222,99999999,11144222' 
ADCP,ioos:station:wmo:42374:1,2012-01-29T07:00:00Z,28.8660,-88.0560,1.0,5.3,-9999.0,99.0,'11111222,99999999,11144222' 
ADCP,ioos:station:wmo:42374:1,2012-01-29T08:00:00Z,28.8660,-88.0560,1.0,5.7,-9999.0,99.0,'11111222,99999999,11144222' 
ADCP,ioos:station:wmo:42374:1,2012-01-29T08:20:00Z,28.8660,-88.0560,1.0,5.6,-9999.0,99.0,'11111222,99999999,11144222' 
ADCP,ioos:station:wmo:42374:1,2012-01-29T08:40:00Z,28.8660,-88.0560,1.0,6.0,-9999.0,99.0,'11111222,99999999,11144222' 
ADCP,ioos:station:wmo:42374:1,2012-01-29T09:20:00Z,28.8660,-88.0560,1.0,5.9,-9999.0,99.0,'11111222,99999999,11144222' 
ADCP,ioos:station:wmo:42374:1,2012-01-29T10:00:00Z,28.8660,-88.0560,1.0,5.4,-9999.0,99.0,'11111222,99999999,11144222' 
ADCP,ioos:station:wmo:42374:1,2012-01-29T10:20:00Z,28.8660,-88.0560,1.0,5.2,-9999.0,99.0,'11111222,99999999,11144222' 
ADCP,ioos:station:wmo:42374:1,2012-01-29T11:00:00Z,28.8660,-88.0560,1.0,5.1,-9999.0,99.0,'11111222,99999999,11144222' 
ADCP,ioos:station:wmo:42374:1,2012-01-29T11:20:00Z,28.8660,-88.0560,1.0,4.8,-9999.0,99.0,'11111222,99999999,11144222' 
ADCP,ioos:station:wmo:42374:1,2012-01-29T12:00:00Z,28.8660,-88.0560,1.0,5.6,-9999.0,99.0,'11111222,99999999,11144222' 
ADCP,ioos:station:wmo:42374:1,2012-01-29T12:20:00Z,28.8660,-88.0560,1.0,6.1,-9999.0,99.0,'11111222,99999999,11144222' 
ADCP,ioos:station:wmo:42374:1,2012-01-29T13:20:00Z,28.8660,-88.0560,1.0,4.8,-9999.0,99.0,'11111222,99999999,11144222' 
ADCP,ioos:station:wmo:42374:1,2012-01-29T14:00:00Z,28.8660,-88.0560,1.0,4.5,-9999.0,99.0,'11111222,99999999,11144222' 
ADCP,ioos:station:wmo:42374:1,2012-01-29T14:20:00Z,28.8660,-88.0560,1.0,4.8,-9999.0,99.0,'11111222,99999999,11144222' 
ADCP,ioos:station:wmo:42374:1,2012-01-29T15:00:00Z,28.8660,-88.0560,1.0,5.7,-9999.0,99.0,'11111222,99999999,11144222' 
ADCP,ioos:station:wmo:42374:1,2012-01-29T15:20:00Z,28.8660,-88.0560,1.0,6.1,-9999.0,99.0,'11111222,99999999,11144222' 
ADCP,ioos:station:wmo:42374:1,2012-01-29T16:00:00Z,28.8660,-88.0560,1.0,6.0,-9999.0,99.0,'11111222,99999999,11144222' 
ADCP,ioos:station:wmo:42374:1,2012-01-29T16:20:00Z,28.8660,-88.0560,1.0,5.9,-9999.0,99.0,'11111222,99999999,11144222' 
ADCP,ioos:station:wmo:42374:1,2012-01-29T17:00:00Z,28.8660,-88.0560,1.0,5.6,-9999.0,99.0,'11111222,99999999,11144222' 
ADCP,ioos:station:wmo:42374:1,2012-01-29T17:20:00Z,28.8660,-88.0560,1.0,5.6,-9999.0,99.0,'11111222,99999999,11144222' 
ADCP,ioos:station:wmo:42374:1,2012-01-29T18:00:00Z,28.8660,-88.0560,1.0,6.3,-9999.0,99.0,'11111222,99999999,11144222' 
ADCP,ioos:station:wmo:42374:1,2012-01-29T18:20:00Z,28.8660,-88.0560,1.0,6.0,-9999.0,99.0,'11111222,99999999,11144222' 
ADCP,ioos:station:wmo:42374:1,2012-01-29T18:40:00Z,28.8660,-88.0560,1.0,6.3,-9999.0,99.0,'11111222,99999999,11144222' 
ADCP,ioos:station:wmo:42374:1,2012-01-29T19:00:00Z,28.8660,-88.0560,1.0,6.2,-9999.0,99.0,'11111222,99999999,11144222' 
ADCP,ioos:station:wmo:42374:1,2012-01-29T19:20:00Z,28.8660,-88.0560,1.0,6.2,-9999.0,99.0,'11111222,99999999,11144222' 
ADCP,ioos:station:wmo:42374:1,2012-01-29T20:00:00Z,28.8660,-88.0560,1.0,6.8,-9999.0,99.0,'11111222,99999999,11144222' 
ADCP,ioos:station:wmo:42374:1,2012-01-29T20:20:00Z,28.8660,-88.0560,1.0,7.2,-9999.0,99.0,'11111222,99999999,11144222' 
ADCP,ioos:station:wmo:42374:1,2012-01-29T21:00:00Z,28.8660,-88.0560,1.0,8.0,-9999.0,99.0,'11111222,99999999,11144222' 
ADCP,ioos:station:wmo:42374:1,2012-01-29T21:20:00Z,28.8660,-88.0560,1.0,8.3,-9999.0,99.0,'11111222,99999999,11144222' 
ADCP,ioos:station:wmo:42374:1,2012-01-29T22:00:00Z,28.8660,-88.0560,1.0,9.4,-9999.0,99.0,'11111222,99999999,11144222' 
ADCP,ioos:station:wmo:42374:1,2012-01-29T22:20:00Z,28.8660,-88.0560,1.0,9.4,-9999.0,99.0,'11111222,99999999,11144222' 
ADCP,ioos:station:wmo:42374:1,2012-01-29T23:00:00Z,28.8660,-88.0560,1.0,9.7,-9999.0,99.0,'11111222,99999999,11144222' 
ADCP,ioos:station:wmo:42374:1,2012-01-29T23:20:00Z,28.8660,-88.0560,1.0,9.8,-9999.0,99.0,'11111222,99999999,11144222' 
ADCP,ioos:station:wmo:42374:1,2012-01-30T00:00:00Z,28.8660,-88.0560,1.0,9.6,-9999.0,99.0,'11111222,99999999,11144222' 
ADCP,ioos:station:wmo:42374:1,2012-01-30T00:20:00Z,28.8660,-88.0560,1.0,9.9,-9999.0,99.0,'11111222,99999999,11144222' 
ADCP,ioos:station:wmo:42374:1,2012-01-30T01:20:00Z,28.8660,-88.0560,1.0,9.6,-9999.0,99.0,'11111222,99999999,11144222' 
ADCP,ioos:station:wmo:42374:1,2012-01-30T02:20:00Z,28.8660,-88.0560,1.0,8.8,-9999.0,99.0,'11111222,99999999,11144222' 
ADCP,ioos:station:wmo:42374:1,2012-01-30T04:00:00Z,28.8660,-88.0560,1.0,8.7,-9999.0,99.0,'11111222,99999999,11144222' 
ADCP,ioos:station:wmo:42374:1,2012-01-30T05:00:00Z,28.8660,-88.0560,1.0,9.1,-9999.0,99.0,'11111222,99999999,11144222' 
ADCP,ioos:station:wmo:42374:1,2012-01-30T06:00:00Z,28.8660,-88.0560,1.0,8.9,-9999.0,99.0,'11111222,99999999,11144222' 
ADCP,ioos:station:wmo:42374:1,2012-01-30T06:20:00Z,28.8660,-88.0560,1.0,9.0,-9999.0,99.0,'11111222,99999999,11144222' 
ADCP,ioos:station:wmo:42374:1,2012-01-30T07:20:00Z,28.8660,-88.0560,1.0,8.8,-9999.0,99.0,'11111222,99999999,11144222' 
ADCP,ioos:station:wmo:42374:1,2012-01-30T09:20:00Z,28.8660,-88.0560,1.0,8.8,-9999.0,99.0,'11111222,99999999,11144222' 
ADCP,ioos:station:wmo:42374:1,2012-01-30T10:20:00Z,28.8660,-88.0560,1.0,8.8,-9999.0,99.0,'11111222,99999999,11144222' 
ADCP,ioos:station:wmo:42374:1,2012-01-30T11:00:00Z,28.8660,-88.0560,1.0,8.8,-9999.0,99.0,'11111222,99999999,11144222' 
ADCP,ioos:station:wmo:42374:1,2012-01-30T11:20:00Z,28.8660,-88.0560,1.0,8.8,-9999.0,99.0,'11111222,99999999,11144222' 
ADCP,ioos:station:wmo:42374:1,2012-01-30T12:20:00Z,28.8660,-88.0560,1.0,8.8,-9999.0,99.0,'11111222,99999999,11144222' 